Location: Sungai Bunut
(2.6333°N, 113.7333°E)
Time: 15:05:28
(UTC+00:00)

Altair - Pass Details

Date: 04 December 2023
Orbit: 1501 x 1682 km, 47.2° (Epoch: 24 February)

Event Time Altitude Azimuth Distance (km) Brightness Sun altitude
Rises 22:58:03 0° 240° (WSW) 4,921 9.8 8.8°
Reaches altitude 10° 23:01:35 10° 248° (WSW) 3,919 9.3 9.7°
Maximum altitude 23:10:31 37° 311° (NW) 2,361 8.2 11.7°
Drops below altitude 10° 23:19:14 10° 15° (NNE) 3,801 9.5 13.7°
Sets 23:22:39 0° 24° (NNE) 4,757 10.1 14.5°
